Location: Agua Amarilla
(10.0342°N, 66.8490°W)
Time: 22:38:36
(UTC+00:00)

BREEZE-M DEB (TANK) - Pass Details

Date: 26 June 2022
Orbit: 580 x 17137 km, 49.6° (Epoch: 14 August)

Event Time Altitude Azimuth Distance (km) Brightness Sun altitude
Rises 23:06:35 0° 316° (NW) 2,864 8.0 -4.2°
Reaches altitude 10° 23:08:11 10° 314° (NW) 2,122 7.3 -4.6°
Maximum altitude 23:12:19 74° 229° (SW) 1,080 4.4 -5.5°
Drops below altitude 10° 23:24:13 10° 146° (SE) 5,797 7.5 -8.1°
Sets 23:32:22 0° 144° (SE) 8,887 8.4 -9.9°
